When you browse on this site, cookies collect data to enhance your experience and personalize the content and advertising you see.
Visit our Privacy Policy to learn more. By continuing to use the site, you agree to this use of cookies and data.
  • en France
  • Liste des pays
  • À 7 jours
  • Température de l'eau
  • Carte satellitaire
  • Carte météo
  • Widgets météo
  • user-avatar
    Se connecter

    Météo par heure à Zimapán

    Ce jour, 18 Juillet, Jeudi

    Heure Température Précipitation Vent Pression Humidité
    00:00 +16°C° 0 mm 1 m/s 613 mmHg 95%
    01:00 +16°C° 0 mm 1 m/s 613 mmHg 93%
    02:00 +16°C° 0 mm 1 m/s 612 mmHg 92%
    03:00 +16°C° 0 mm 1 m/s 612 mmHg 92%
    04:00 +15°C° 0 mm 0 m/s 612 mmHg 92%
    05:00 +15°C° 0 mm 0 m/s 612 mmHg 91%
    06:00 +16°C° 0 mm 0 m/s 613 mmHg 85%
    07:00 +19°C° 0 mm 1 m/s 614 mmHg 80%
    08:00 +20°C° 0 mm 1 m/s 614 mmHg 74%
    09:00 +22°C° 0 mm 1 m/s 615 mmHg 65%
    10:00 +23°C° 0 mm 2 m/s 615 mmHg 57%
    11:00 +25°C° 0 mm 3 m/s 615 mmHg 49%
    12:00 +25°C° 0 mm 3 m/s 615 mmHg 48%
    13:00 +26°C° 0 mm 4 m/s 614 mmHg 48%
    14:00 +26°C° 0 mm 4 m/s 614 mmHg 47%
    15:00 +25°C° 0.1 mm 4 m/s 613 mmHg 55%
    16:00 +22°C° 0.1 mm 4 m/s 613 mmHg 63%
    17:00 +21°C° 0.1 mm 4 m/s 612 mmHg 70%
    18:00 +20°C° 0.1 mm 3 m/s 612 mmHg 78%
    19:00 +18°C° 0.1 mm 2 m/s 612 mmHg 86%
    20:00 +18°C° 0.1 mm 1 m/s 612 mmHg 94%
    21:00 +16°C° 0 mm 1 m/s 612 mmHg 94%
    22:00 +16°C° 0 mm 1 m/s 612 mmHg 94%
    23:00 +16°C° 0 mm 1 m/s 612 mmHg 95%

    Demain, 19 Juillet, Vendredi

    Heure Température Précipitation Vent Pression Humidité
    00:00 +15°C° 0 mm 0 m/s 612 mmHg 94%
    01:00 +15°C° 0 mm 0 m/s 611 mmHg 94%
    02:00 +15°C° 0 mm 0 m/s 611 mmHg 93%
    03:00 +15°C° 0 mm 0 m/s 611 mmHg 92%
    04:00 +15°C° 0 mm 0 m/s 611 mmHg 91%
    05:00 +15°C° 0 mm 0 m/s 611 mmHg 90%
    06:00 +16°C° 0 mm 0 m/s 612 mmHg 88%
    07:00 +16°C° 0 mm 0 m/s 612 mmHg 86%
    08:00 +19°C° 0 mm 1 m/s 613 mmHg 83%
    09:00 +20°C° 0.1 mm 1 m/s 613 mmHg 78%
    10:00 +20°C° 0.1 mm 2 m/s 613 mmHg 72%
    11:00 +21°C° 0.1 mm 2 m/s 613 mmHg 67%
    12:00 +23°C° 0.3 mm 2 m/s 613 mmHg 67%
    13:00 +22°C° 0.3 mm 3 m/s 612 mmHg 66%
    14:00 +24°C° 0.3 mm 3 m/s 612 mmHg 66%
    15:00 +22°C° 0.4 mm 3 m/s 612 mmHg 70%
    16:00 +21°C° 0.4 mm 3 m/s 612 mmHg 73%
    17:00 +20°C° 0.4 mm 3 m/s 611 mmHg 77%
    18:00 +19°C° 0.7 mm 2 m/s 611 mmHg 82%
    19:00 +18°C° 0.7 mm 2 m/s 612 mmHg 87%
    20:00 +18°C° 0.7 mm 1 m/s 612 mmHg 92%
    21:00 +18°C° 0.3 mm 1 m/s 612 mmHg 93%
    22:00 +18°C° 0.3 mm 1 m/s 612 mmHg 93%
    23:00 +16°C° 0.3 mm 1 m/s 612 mmHg 93%

    Après-demain, 20 Juillet, Samedi

    Heure Température Précipitation Vent Pression Humidité
    00:00 +16°C° 0.1 mm 1 m/s 612 mmHg 93%
    01:00 +16°C° 0.1 mm 1 m/s 611 mmHg 94%
    02:00 +15°C° 0.1 mm 0 m/s 611 mmHg 94%
    03:00 +15°C° 0.1 mm 0 m/s 611 mmHg 94%
    04:00 +14°C° 0.1 mm 0 m/s 611 mmHg 94%
    05:00 +14°C° 0.1 mm 0 m/s 611 mmHg 94%
    06:00 +16°C° 0 mm 0 m/s 612 mmHg 88%
    07:00 +17°C° 0 mm 0 m/s 612 mmHg 82%
    08:00 +19°C° 0 mm 0 m/s 613 mmHg 75%
    09:00 +22°C° 0.2 mm 1 m/s 613 mmHg 70%
    10:00 +23°C° 0.2 mm 1 m/s 613 mmHg 65%
    11:00 +24°C° 0.2 mm 1 m/s 613 mmHg 61%
    12:00 +24°C° 0.5 mm 2 m/s 613 mmHg 59%
    13:00 +25°C° 0.5 mm 3 m/s 613 mmHg 58%
    14:00 +25°C° 0.5 mm 3 m/s 612 mmHg 56%
    15:00 +24°C° 0.4 mm 3 m/s 612 mmHg 62%
    16:00 +22°C° 0.4 mm 3 m/s 611 mmHg 67%
    17:00 +21°C° 0.4 mm 4 m/s 611 mmHg 73%
    18:00 +19°C° 0.1 mm 3 m/s 611 mmHg 80%
    19:00 +18°C° 0.1 mm 2 m/s 611 mmHg 87%
    20:00 +17°C° 0.1 mm 2 m/s 611 mmHg 94%
    21:00 +18°C° 0 mm 1 m/s 612 mmHg 94%
    22:00 +16°C° 0 mm 1 m/s 612 mmHg 94%
    23:00 +16°C° 0 mm 1 m/s 612 mmHg 95%

    21 Juillet, Dimanche

    Heure Température Précipitation Vent Pression Humidité
    00:00 +16°C° 0 mm 1 m/s 611 mmHg 94%
    01:00 +15°C° 0 mm 0 m/s 611 mmHg 94%
    02:00 +15°C° 0 mm 0 m/s 611 mmHg 93%
    03:00 +14°C° 0 mm 0 m/s 611 mmHg 93%
    04:00 +14°C° 0 mm 0 m/s 611 mmHg 93%
    05:00 +14°C° 0 mm 0 m/s 611 mmHg 93%
    06:00 +18°C° 0 mm 1 m/s 612 mmHg 85%
    07:00 +20°C° 0 mm 1 m/s 613 mmHg 76%
    08:00 +22°C° 0 mm 1 m/s 614 mmHg 67%
    09:00 +23°C° 0.2 mm 1 m/s 614 mmHg 61%
    10:00 +25°C° 0.2 mm 1 m/s 615 mmHg 55%
    11:00 +26°C° 0.2 mm 1 m/s 615 mmHg 49%
    12:00 +25°C° 1.2 mm 2 m/s 614 mmHg 55%
    13:00 +25°C° 1.2 mm 2 m/s 613 mmHg 60%
    14:00 +24°C° 1.2 mm 3 m/s 613 mmHg 65%
    15:00 +22°C° 1.9 mm 3 m/s 612 mmHg 71%
    16:00 +21°C° 1.9 mm 3 m/s 612 mmHg 77%
    17:00 +20°C° 1.9 mm 3 m/s 611 mmHg 83%
    18:00 +19°C° 1.2 mm 2 m/s 612 mmHg 85%
    19:00 +19°C° 1.2 mm 2 m/s 612 mmHg 87%
    20:00 +19°C° 1.2 mm 1 m/s 613 mmHg 89%
    21:00 +19°C° 0.4 mm 1 m/s 613 mmHg 88%
    22:00 +19°C° 0.4 mm 1 m/s 613 mmHg 86%
    23:00 +17°C° 0.4 mm 0 m/s 613 mmHg 85%

    22 Juillet, Lundi

    Heure Température Précipitation Vent Pression Humidité
    00:00 +17°C° 0.1 mm 0 m/s 613 mmHg 85%
    01:00 +17°C° 0.1 mm 0 m/s 613 mmHg 85%
    02:00 +17°C° 0.1 mm 0 m/s 612 mmHg 84%
    03:00 +16°C° 0 mm 0 m/s 612 mmHg 85%
    04:00 +16°C° 0 mm 0 m/s 612 mmHg 87%
    05:00 +16°C° 0 mm 0 m/s 612 mmHg 88%
    06:00 +17°C° 0.2 mm 0 m/s 613 mmHg 84%
    07:00 +17°C° 0.2 mm 0 m/s 613 mmHg 80%
    08:00 +18°C° 0.2 mm 0 m/s 614 mmHg 76%
    09:00 +21°C° 1.1 mm 1 m/s 614 mmHg 73%
    10:00 +22°C° 1.1 mm 1 m/s 614 mmHg 70%
    11:00 +23°C° 1.1 mm 2 m/s 614 mmHg 66%
    12:00 +23°C° 1.4 mm 2 m/s 614 mmHg 66%
    13:00 +22°C° 1.4 mm 3 m/s 613 mmHg 66%
    14:00 +24°C° 1.4 mm 3 m/s 613 mmHg 66%
    15:00 +22°C° 1.4 mm 3 m/s 613 mmHg 71%
    16:00 +21°C° 1.4 mm 3 m/s 612 mmHg 76%
    17:00 +19°C° 1.4 mm 3 m/s 612 mmHg 81%
    18:00 +19°C° 0.4 mm 3 m/s 612 mmHg 85%
    19:00 +18°C° 0.4 mm 2 m/s 612 mmHg 89%
    20:00 +18°C° 0.4 mm 1 m/s 613 mmHg 93%
    21:00 +18°C° 0.4 mm 1 m/s 613 mmHg 93%
    22:00 +18°C° 0.4 mm 1 m/s 613 mmHg 93%
    23:00 +18°C° 0.4 mm 1 m/s 613 mmHg 93%

    23 Juillet, Mardi

    Heure Température Précipitation Vent Pression Humidité
    00:00 +18°C° 0.3 mm 1 m/s 613 mmHg 93%
    01:00 +16°C° 0.3 mm 1 m/s 612 mmHg 93%
    02:00 +16°C° 0.3 mm 1 m/s 612 mmHg 92%
    03:00 +16°C° 0 mm 1 m/s 612 mmHg 93%
    04:00 +14°C° 0 mm 0 m/s 612 mmHg 94%
    05:00 +14°C° 0 mm 0 m/s 612 mmHg 95%
    06:00 +16°C° 0 mm 1 m/s 612 mmHg 90%
    07:00 +18°C° 0 mm 1 m/s 613 mmHg 85%
    08:00 +20°C° 0 mm 1 m/s 614 mmHg 80%
    09:00 +21°C° 0 mm 1 m/s 614 mmHg 72%
    10:00 +23°C° 0 mm 2 m/s 614 mmHg 64%
    11:00 +24°C° 0 mm 3 m/s 615 mmHg 56%
    12:00 +24°C° 0.3 mm 3 m/s 614 mmHg 59%
    13:00 +23°C° 0.3 mm 4 m/s 613 mmHg 61%
    14:00 +23°C° 0.3 mm 4 m/s 613 mmHg 63%
    15:00 +22°C° 0.4 mm 4 m/s 613 mmHg 68%
    16:00 +21°C° 0.4 mm 4 m/s 612 mmHg 73%
    17:00 +20°C° 0.4 mm 3 m/s 612 mmHg 78%
    18:00 +18°C° 0 mm 3 m/s 612 mmHg 83%
    19:00 +17°C° 0 mm 2 m/s 612 mmHg 88%
    20:00 +16°C° 0 mm 1 m/s 612 mmHg 93%
    21:00 +16°C° 0 mm 1 m/s 612 mmHg 94%
    22:00 +16°C° 0 mm 1 m/s 612 mmHg 94%
    23:00 +15°C° 0 mm 1 m/s 612 mmHg 94%
    Voir plus